Regional Weather Roundup
Issued by NWS

Home | Current Version | Previous Version | Graphics & Text | Print | Product List | Glossary On
Versions: 1 2 3 4 5 6 7 8 9 10 11 12 13 14 15 16 17 18 19 20 21 22 23 24 25 26 27 28 29 30 31 32 33 34 35 36 37 38 39 40 41 42 43 44 45 46 47 48 49 50
000
ASUS43 KTOP 140708
RWRKS

WEATHER ROUNDUP FOR KANSAS
NATIONAL WEATHER SERVICE GOODLAND KS
100 AM CST THU DEC 14 2017

NOTE:  "FAIR" INDICATES FEW OR NO CLOUDS BELOW 12,000 FEET WITH NO
SIGNIFICANT WEATHER AND/OR OBSTRUCTIONS TO VISIBILITY.

KSZ001>006-013>018-027>032-041>047-140800-
NORTHWEST KANSAS

CITY           SKY/WX    TMP DP  RH WIND       PRES   REMARKS
GOODLAND       CLOUDY    38  19  46 N12       30.10F WCI  30
HAYS           PTCLDY    37  22  54 N12       30.07R WCI  29
HILL CITY      PTCLDY    39  23  52 NW10      30.09  WCI  32
RUSSELL        CLOUDY    34  24  67 NW10      30.05R WCI  26
$$

KSZ061>065-074>080-084>089-140800-
SOUTHWEST KANSAS

CITY           SKY/WX    TMP DP  RH WIND       PRES   REMARKS
DODGE CITY     CLOUDY    39  19  44 NW8       30.06R
ELKHART        CLOUDY    41  21  44 N6        30.07R
GARDEN CITY    CLOUDY    38  17  42 N10       30.07S WCI  31
GREAT BEND     CLEAR     35  20  54 NW12      30.05  WCI  27
LIBERAL        CLOUDY    38  17  42 N6        30.07R
PRATT          CLOUDY    38  19  46 NW7       30.04R
$$

KSZ066>073-081>083-090>101-140800-
SOUTHEAST KANSAS

CITY           SKY/WX    TMP DP  RH WIND       PRES   REMARKS
CHANUTE        CLEAR     39  28  64 N7        29.98S
COFFEYVILLE    PTCLDY    40  27  59 N9        29.97R
HUTCHINSON     CLEAR     38  25  59 N12       30.01R WCI  30
MEDICINE LODGE   N/A     43  24  47 N6        30.02R
NEWTON         CLEAR     32  23  69 N10       30.00R WCI  24
PARSONS        CLEAR     40  29  64 N8        29.98R
WICHITA INTL   PTCLDY    38  24  57 N9        30.00R
WICHITA JABRA  CLEAR     33  24  69 NW7       30.00R
WICHITA MCCONL CLEAR     37  22  55 N8        29.99R
WINFIELD       MOCLDY    39  25  57 NW6       30.00R
$$

KSZ007>012-019>026-033>040-048>060-102>105-140800-
NORTHEAST KANSAS

CITY           SKY/WX    TMP DP  RH WIND       PRES   REMARKS
CONCORDIA      PTCLDY    34  26  72 NW8       30.04R
EMPORIA        CLEAR     31  24  75 N7        30.00R
LAWRENCE       CLEAR     26  22  84 NW6       29.97F
MANHATTAN      MOCLDY    36  27  69 N3        30.02R
MARYSVILLE     CLOUDY    32  28  86 NW10      30.01R WCI  24
OLATHE IND     CLEAR     29  25  85 N8        29.96F
OLATHE EXE     PTCLDY    34  27  75 N6        29.94F
SALINA         CLEAR     31  23  72 NW7       30.05R
TOPEKA BILLARD PTCLDY    34  28  79 NW7       29.98F
TOPEKA FORBES  CLEAR     35  27  72 NW10      29.97S WCI  27
$$




USA.gov is the U.S. government's official web portal to all federal, state and local government web resources and services.